When you browse on this site, cookies collect data to enhance your experience and personalize the content and advertising you see.
Visit our Privacy Policy to learn more. By continuing to use the site, you agree to this use of cookies and data.
  • Em Portugal
  • Lista de países
  • Para 7 dias
  • Temperatura da água
  • Mapa do tempo
  • Widgets de tempo
  • user-avatar
    Iniciar Sessão

    Previsão horária em Oliva

    Hoje, 21 Agosto, Quarta-feira

    Tempo Temperatura Precipitação Vento Pressão Humidade
    00:00 +26°C° 0.8 mm 5 m/s 763 mmHg 88%
    01:00 +25°C° 0.4 mm 5 m/s 762 mmHg 88%
    02:00 +25°C° 0.4 mm 5 m/s 762 mmHg 87%
    03:00 +24°C° 0.4 mm 6 m/s 762 mmHg 87%
    04:00 +25°C° 0.1 mm 5 m/s 762 mmHg 86%
    05:00 +25°C° 0.1 mm 5 m/s 762 mmHg 85%
    06:00 +25°C° 0.1 mm 5 m/s 762 mmHg 84%
    07:00 +26°C° 0 mm 5 m/s 762 mmHg 78%
    08:00 +27°C° 0 mm 5 m/s 763 mmHg 72%
    09:00 +27°C° 0 mm 5 m/s 763 mmHg 67%
    10:00 +28°C° 0 mm 4 m/s 762 mmHg 63%
    11:00 +29°C° 0 mm 4 m/s 762 mmHg 58%
    12:00 +29°C° 0 mm 4 m/s 762 mmHg 54%
    13:00 +30°C° 0 mm 4 m/s 762 mmHg 52%
    14:00 +30°C° 0 mm 4 m/s 761 mmHg 50%
    15:00 +32°C° 0 mm 4 m/s 761 mmHg 48%
    16:00 +30°C° 0 mm 4 m/s 761 mmHg 51%
    17:00 +29°C° 0 mm 3 m/s 761 mmHg 54%
    18:00 +28°C° 0 mm 3 m/s 761 mmHg 57%
    19:00 +27°C° 0 mm 2 m/s 761 mmHg 62%
    20:00 +26°C° 0 mm 2 m/s 761 mmHg 67%
    21:00 +25°C° 0 mm 1 m/s 762 mmHg 71%
    22:00 +25°C° 0 mm 1 m/s 762 mmHg 72%
    23:00 +25°C° 0 mm 1 m/s 762 mmHg 72%

    Amanhã, 22 Agosto, Quinta-feira

    Tempo Temperatura Precipitação Vento Pressão Humidade
    00:00 +24°C° 0 mm 1 m/s 762 mmHg 73%
    01:00 +24°C° 0 mm 1 m/s 761 mmHg 74%
    02:00 +24°C° 0 mm 1 m/s 761 mmHg 76%
    03:00 +23°C° 0 mm 1 m/s 761 mmHg 78%
    04:00 +24°C° 0 mm 1 m/s 761 mmHg 77%
    05:00 +24°C° 0 mm 1 m/s 761 mmHg 77%
    06:00 +24°C° 0 mm 1 m/s 762 mmHg 76%
    07:00 +26°C° 0 mm 1 m/s 762 mmHg 69%
    08:00 +27°C° 0 mm 2 m/s 762 mmHg 61%
    09:00 +29°C° 0 mm 2 m/s 762 mmHg 53%
    10:00 +30°C° 0 mm 2 m/s 762 mmHg 49%
    11:00 +31°C° 0 mm 3 m/s 762 mmHg 44%
    12:00 +33°C° 0 mm 3 m/s 762 mmHg 39%
    13:00 +33°C° 0 mm 3 m/s 762 mmHg 38%
    14:00 +33°C° 0 mm 4 m/s 761 mmHg 37%
    15:00 +33°C° 0 mm 4 m/s 761 mmHg 37%
    16:00 +32°C° 0 mm 4 m/s 761 mmHg 40%
    17:00 +31°C° 0 mm 3 m/s 761 mmHg 44%
    18:00 +30°C° 0 mm 3 m/s 761 mmHg 47%
    19:00 +28°C° 0 mm 3 m/s 761 mmHg 54%
    20:00 +27°C° 0 mm 2 m/s 762 mmHg 60%
    21:00 +25°C° 0 mm 2 m/s 762 mmHg 67%
    22:00 +25°C° 0 mm 1 m/s 762 mmHg 68%
    23:00 +24°C° 0 mm 1 m/s 762 mmHg 69%

    Depois de amanhã, 23 Agosto, Sexta-feira

    Tempo Temperatura Precipitação Vento Pressão Humidade
    00:00 +24°C° 0 mm 1 m/s 762 mmHg 71%
    01:00 +24°C° 0 mm 1 m/s 762 mmHg 72%
    02:00 +23°C° 0 mm 1 m/s 762 mmHg 73%
    03:00 +23°C° 0 mm 1 m/s 761 mmHg 74%
    04:00 +23°C° 0 mm 1 m/s 761 mmHg 72%
    05:00 +23°C° 0 mm 1 m/s 761 mmHg 71%
    06:00 +23°C° 0 mm 2 m/s 761 mmHg 70%
    07:00 +25°C° 0 mm 2 m/s 761 mmHg 61%
    08:00 +28°C° 0 mm 2 m/s 762 mmHg 51%
    09:00 +30°C° 0 mm 2 m/s 762 mmHg 42%
    10:00 +31°C° 0 mm 2 m/s 762 mmHg 38%
    11:00 +32°C° 0 mm 2 m/s 761 mmHg 34%
    12:00 +34°C° 0 mm 2 m/s 761 mmHg 29%
    13:00 +34°C° 0 mm 3 m/s 761 mmHg 30%
    14:00 +34°C° 0 mm 3 m/s 761 mmHg 31%
    15:00 +34°C° 0 mm 3 m/s 760 mmHg 31%
    16:00 +33°C° 0 mm 3 m/s 760 mmHg 35%
    17:00 +31°C° 0 mm 2 m/s 760 mmHg 38%
    18:00 +30°C° 0 mm 2 m/s 760 mmHg 42%
    19:00 +29°C° 0 mm 2 m/s 760 mmHg 47%
    20:00 +27°C° 0 mm 1 m/s 761 mmHg 53%
    21:00 +23°C° 0 mm 0 m/s 761 mmHg 59%
    22:00 +25°C° 0 mm 1 m/s 761 mmHg 57%
    23:00 +25°C° 0 mm 1 m/s 761 mmHg 56%

    24 Agosto, Sábado

    Tempo Temperatura Precipitação Vento Pressão Humidade
    00:00 +25°C° 0 mm 1 m/s 760 mmHg 54%
    01:00 +24°C° 0 mm 1 m/s 760 mmHg 55%
    02:00 +24°C° 0 mm 1 m/s 760 mmHg 57%
    03:00 +23°C° 0 mm 2 m/s 760 mmHg 58%
    04:00 +24°C° 0 mm 2 m/s 760 mmHg 57%
    05:00 +24°C° 0 mm 2 m/s 760 mmHg 56%
    06:00 +24°C° 0 mm 2 m/s 760 mmHg 55%
    07:00 +26°C° 0 mm 1 m/s 760 mmHg 48%
    08:00 +29°C° 0 mm 1 m/s 761 mmHg 41%
    09:00 +31°C° 0 mm 1 m/s 761 mmHg 33%
    10:00 +32°C° 0 mm 2 m/s 761 mmHg 32%
    11:00 +34°C° 0 mm 2 m/s 761 mmHg 31%
    12:00 +35°C° 0 mm 3 m/s 760 mmHg 30%
    13:00 +35°C° 0 mm 3 m/s 760 mmHg 31%
    14:00 +35°C° 0 mm 4 m/s 760 mmHg 33%
    15:00 +35°C° 0 mm 4 m/s 760 mmHg 35%
    16:00 +34°C° 0 mm 4 m/s 760 mmHg 40%
    17:00 +32°C° 0 mm 4 m/s 760 mmHg 46%
    18:00 +30°C° 0 mm 4 m/s 759 mmHg 51%
    19:00 +29°C° 0 mm 3 m/s 760 mmHg 59%
    20:00 +27°C° 0 mm 3 m/s 760 mmHg 66%
    21:00 +26°C° 0 mm 2 m/s 760 mmHg 73%
    22:00 +25°C° 0 mm 2 m/s 760 mmHg 76%
    23:00 +25°C° 0 mm 2 m/s 760 mmHg 78%

    25 Agosto, Domingo

    Tempo Temperatura Precipitação Vento Pressão Humidade
    00:00 +24°C° 0 mm 2 m/s 760 mmHg 80%
    01:00 +24°C° 0 mm 2 m/s 760 mmHg 82%
    02:00 +23°C° 0 mm 2 m/s 760 mmHg 83%
    03:00 +23°C° 0 mm 1 m/s 760 mmHg 85%
    04:00 +23°C° 0 mm 1 m/s 760 mmHg 84%
    05:00 +23°C° 0 mm 1 m/s 760 mmHg 82%
    06:00 +23°C° 0 mm 1 m/s 760 mmHg 81%
    07:00 +26°C° 0 mm 1 m/s 760 mmHg 70%
    08:00 +28°C° 0 mm 1 m/s 760 mmHg 59%
    09:00 +30°C° 0 mm 1 m/s 761 mmHg 47%
    10:00 +31°C° 0 mm 2 m/s 760 mmHg 43%
    11:00 +33°C° 0 mm 3 m/s 760 mmHg 39%
    12:00 +35°C° 0 mm 4 m/s 760 mmHg 36%
    13:00 +35°C° 0 mm 5 m/s 760 mmHg 35%
    14:00 +35°C° 0 mm 5 m/s 760 mmHg 35%
    15:00 +35°C° 0 mm 5 m/s 759 mmHg 35%
    16:00 +34°C° 0 mm 5 m/s 759 mmHg 39%
    17:00 +33°C° 0 mm 5 m/s 759 mmHg 43%
    18:00 +32°C° 0 mm 4 m/s 759 mmHg 46%
    19:00 +29°C° 0 mm 4 m/s 760 mmHg 53%
    20:00 +27°C° 0 mm 3 m/s 760 mmHg 59%
    21:00 +26°C° 0 mm 3 m/s 761 mmHg 66%
    22:00 +25°C° 0 mm 3 m/s 761 mmHg 67%
    23:00 +25°C° 0 mm 3 m/s 761 mmHg 68%

    26 Agosto, Segunda-feira

    Tempo Temperatura Precipitação Vento Pressão Humidade
    00:00 +25°C° 0 mm 3 m/s 761 mmHg 70%
    01:00 +24°C° 0 mm 2 m/s 761 mmHg 70%
    02:00 +24°C° 0 mm 2 m/s 761 mmHg 71%
    03:00 +24°C° 0 mm 1 m/s 761 mmHg 72%
    04:00 +24°C° 0 mm 1 m/s 761 mmHg 71%
    05:00 +24°C° 0 mm 1 m/s 761 mmHg 70%
    06:00 +22°C° 0 mm 0 m/s 761 mmHg 69%
    07:00 +26°C° 0 mm 1 m/s 761 mmHg 60%
    08:00 +29°C° 0 mm 1 m/s 762 mmHg 51%
    09:00 +31°C° 0 mm 1 m/s 762 mmHg 42%
    10:00 +32°C° 0 mm 2 m/s 762 mmHg 39%
    11:00 +35°C° 0 mm 3 m/s 762 mmHg 36%
    12:00 +36°C° 0 mm 4 m/s 762 mmHg 33%
    13:00 +36°C° 0 mm 5 m/s 761 mmHg 34%
    14:00 +36°C° 0 mm 5 m/s 761 mmHg 34%
    15:00 +36°C° 0 mm 6 m/s 761 mmHg 35%
    16:00 +35°C° 0 mm 6 m/s 761 mmHg 38%
    17:00 +34°C° 0 mm 6 m/s 761 mmHg 41%
    18:00 +33°C° 0 mm 5 m/s 761 mmHg 44%
    19:00 +32°C° 0 mm 5 m/s 761 mmHg 47%
    20:00 +29°C° 0 mm 4 m/s 762 mmHg 50%
    21:00 +28°C° 0 mm 3 m/s 762 mmHg 53%
    22:00 +27°C° 0 mm 3 m/s 762 mmHg 56%
    23:00 +27°C° 0 mm 2 m/s 762 mmHg 59%
    Mostrar mais